| time (UTC) | temp F | wind direction | speed MPH | gust MPH | rain 1hr in | rain 24hr in | rain mn in | humidity % | barometer mb |
| 20260906233553 | 78 | 193 | 4.0 | 10.0 | 0.00 | 0.55 | 0.00 | 75 | 1001.8 |
| 20260906233036 | 78 | 193 | 3.0 | 10.0 | 0.00 | 0.55 | 0.00 | 75 | 1001.8 |
| 20260906232540 | 78 | 218 | 5.0 | 12.0 | 0.00 | 0.55 | 0.00 | 75 | 1001.9 |
| 20260906232029 | 78 | 211 | 5.0 | 12.0 | 0.00 | 0.55 | 0.00 | 75 | 1001.8 |
| 20260906231538 | 78 | 190 | 4.0 | 8.0 | 0.00 | 0.55 | 0.00 | 75 | 1001.8 |
| 20260906231021 | 78 | 180 | 2.0 | 8.0 | 0.00 | 0.55 | 0.00 | 75 | 1001.8 |
| 20260906230532 | 78 | 221 | 3.0 | 8.0 | 0.00 | 0.55 | 0.00 | 75 | 1001.9 |
| 20260906230039 | 78 | 215 | 3.0 | 8.0 | 0.00 | 1.10 | 0.00 | 74 | 1001.7 |
| 20260906225521 | 78 | 253 | 2.0 | 8.0 | 0.00 | 1.10 | 0.00 | 75 | 1001.8 |
| 20260906225026 | 78 | 213 | 3.0 | 8.0 | 0.00 | 1.10 | 0.00 | 75 | 1001.8 |
| 20260906224536 | 78 | 205 | 2.0 | 6.0 | 0.00 | 1.10 | 0.00 | 75 | 1001.6 |
| 20260906224018 | 78 | 176 | 2.0 | 6.0 | 0.00 | 1.10 | 0.00 | 76 | 1001.5 |
| 20260906223529 | 78 | 190 | 2.0 | 6.0 | 0.00 | 1.10 | 0.00 | 76 | 1001.5 |
| 20260906223036 | 77 | 174 | 4.0 | 6.0 | 0.00 | 1.10 | 0.00 | 76 | 1001.4 |
| 20260906222518 | 77 | 191 | 2.0 | 5.0 | 0.00 | 1.10 | 0.00 | 76 | 1001.5 |
| 20260906222027 | 77 | 223 | 2.0 | 5.0 | 0.00 | 1.10 | 0.00 | 77 | 1001.5 |
| 20260906221517 | 76 | 208 | 2.0 | 4.0 | 0.00 | 1.10 | 0.00 | 77 | 1001.6 |
| 20260906221023 | 76 | 182 | 1.0 | 2.0 | 0.00 | 1.10 | 0.00 | 77 | 1001.7 |
| 20260906220534 | 76 | 174 | 0.0 | 2.0 | 0.00 | 1.10 | 0.00 | 78 | 1001.6 |
| 20260906215526 | 76 | 179 | 0.0 | 2.0 | 0.00 | 1.18 | 0.00 | 78 | 1001.7 |
| 20260906215035 | 76 | 179 | 0.0 | 2.0 | 0.00 | 1.18 | 0.00 | 78 | 1001.6 |
| 20260906214516 | 76 | 156 | 1.0 | 2.0 | 0.00 | 1.18 | 0.00 | 78 | 1001.6 |
| 20260906214016 | 76 | 170 | 0.0 | 2.0 | 0.00 | 1.18 | 0.00 | 78 | 1001.6 |
| 20260906213542 | 76 | 171 | 0.0 | 1.0 | 0.00 | 1.18 | 0.00 | 78 | 1001.6 |
| 20260906213022 | 76 | 171 | 0.0 | 1.0 | 0.00 | 1.18 | 0.00 | 78 | 1001.6 |
| 20260906212551 | 76 | 171 | 1.0 | 1.0 | 0.00 | 1.18 | 0.00 | 79 | 1001.5 |
| 20260906212041 | 75 | 168 | 0.0 | 1.0 | 0.00 | 1.18 | 0.00 | 79 | 1001.5 |
| 20260906211525 | 75 | 168 | 0.0 | 0.0 | 0.00 | 1.18 | 0.00 | 80 | 1001.5 |
| 20260906211059 | 75 | 168 | 0.0 | 0.0 | 0.00 | 1.18 | 0.00 | 80 | 1001.5 |
| 20260906210528 | 75 | 168 | 0.0 | 0.0 | 0.00 | 1.18 | 0.00 | 80 | 1001.5 |
| 20260906210036 | 75 | 168 | 0.0 | 0.0 | 0.00 | 1.50 | 0.00 | 80 | 1001.6 |
| 20260906205519 | 75 | 168 | 0.0 | 0.0 | 0.00 | 1.50 | 0.00 | 80 | 1001.6 |
| 20260906205032 | 75 | 168 | 0.0 | 0.0 | 0.00 | 1.50 | 0.00 | 80 | 1001.4 |
| 20260906204518 | 75 | 168 | 0.0 | 0.0 | 0.00 | 1.50 | 0.00 | 79 | 1001.4 |
| 20260906204023 | 75 | 168 | 0.0 | 0.0 | 0.00 | 1.50 | 0.00 | 79 | 1001.3 |
| 20260906203538 | 76 | 168 | 0.0 | 0.0 | 0.00 | 1.50 | 0.00 | 79 | 1001.3 |
| 20260906203022 | 76 | 168 | 0.0 | 0.0 | 0.00 | 1.50 | 0.00 | 78 | 1001.2 |
| 20260906202516 | 76 | 168 | 0.0 | 0.0 | 0.00 | 1.50 | 0.00 | 78 | 1001.2 |
| 20260906202025 | 76 | 168 | 0.0 | 0.0 | 0.00 | 1.50 | 0.00 | 78 | 1001.0 |
| 20260906201537 | 76 | 168 | 0.0 | 0.0 | 0.00 | 1.50 | 0.00 | 78 | 1001.0 |
| 20260906201021 | 76 | 168 | 0.0 | 0.0 | 0.00 | 1.50 | 0.00 | 78 | 1001.0 |
| 20260906200533 | 76 | 168 | 0.0 | 0.0 | 0.00 | 1.50 | 0.00 | 78 | 1001.0 |
| 20260906200017 | 76 | 168 | 0.0 | 0.0 | 0.00 | 1.50 | 0.00 | 77 | 1001.1 |
| 20260906195527 | 76 | 168 | 0.0 | 0.0 | 0.00 | 1.50 | 0.00 | 77 | 1001.1 |
| 20260906195040 | 76 | 174 | 0.0 | 0.0 | 0.00 | 1.50 | 0.00 | 77 | 1001.1 |
| 20260906194525 | 76 | 184 | 0.0 | 0.0 | 0.00 | 1.50 | 0.00 | 77 | 1001.0 |
| 20260906194018 | 76 | 184 | 0.0 | 0.0 | 0.00 | 1.50 | 0.00 | 76 | 1000.9 |
| 20260906193525 | 77 | 184 | 0.0 | 1.0 | 0.00 | 1.50 | 0.00 | 76 | 1000.9 |
| 20260906193034 | 77 | 184 | 0.0 | 1.0 | 0.00 | 1.50 | 0.00 | 75 | 1000.8 |
| 20260906192517 | 77 | 184 | 0.0 | 2.0 | 0.00 | 1.50 | 0.00 | 75 | 1000.9 |
| 20260906192026 | 77 | 186 | 1.0 | 3.0 | 0.00 | 1.50 | 0.00 | 75 | 1000.9 |
| 20260906191537 | 77 | 185 | 2.0 | 5.0 | 0.00 | 1.50 | 0.00 | 75 | 1000.8 |
| 20260906191039 | 77 | 160 | 2.0 | 7.0 | 0.00 | 1.50 | 0.00 | 75 | 1000.7 |
| 20260906190520 | 77 | 183 | 3.0 | 7.0 | 0.00 | 1.50 | 0.00 | 74 | 1000.6 |
| 20260906190024 | 77 | 201 | 3.0 | 8.0 | 0.00 | 1.50 | 0.00 | 74 | 1000.6 |
| 20260906185533 | 77 | 211 | 2.0 | 10.0 | 0.00 | 1.50 | 0.00 | 75 | 1000.7 |
| 20260906185042 | 77 | 215 | 3.0 | 10.0 | 0.00 | 1.50 | 0.00 | 75 | 1000.7 |
| 20260906184524 | 77 | 174 | 2.0 | 7.0 | 0.00 | 1.50 | 0.00 | 75 | 1000.7 |
| 20260906184037 | 77 | 208 | 3.0 | 7.0 | 0.00 | 1.50 | 0.00 | 75 | 1000.8 |
| 20260906183519 | 77 | 218 | 2.0 | 7.0 | 0.00 | 1.50 | 0.00 | 75 | 1000.8 |
| 20260906183016 | 77 | 164 | 2.0 | 5.0 | 0.00 | 1.50 | 0.00 | 75 | 1000.9 |
| 20260906182526 | 77 | 222 | 2.0 | 5.0 | 0.00 | 1.50 | 0.00 | 75 | 1000.9 |
| 20260906182032 | 77 | 193 | 3.0 | 6.0 | 0.00 | 1.50 | 0.00 | 75 | 1000.7 |
| 20260906181542 | 77 | 202 | 3.0 | 8.0 | 0.00 | 1.50 | 0.00 | 75 | 1000.7 |
| 20260906181024 | 77 | 204 | 2.0 | 7.0 | 0.00 | 1.50 | 0.00 | 75 | 1000.7 |
| 20260906180534 | 77 | 157 | 3.0 | 9.0 | 0.00 | 1.50 | 0.00 | 75 | 1000.7 |
| 20260906180041 | 77 | 203 | 3.0 | 9.0 | 0.00 | 1.50 | 0.00 | 75 | 1000.8 |
| 20260906175522 | 77 | 227 | 3.0 | 7.0 | 0.00 | 1.50 | 0.00 | 76 | 1000.8 |
| 20260906175032 | 77 | 179 | 1.0 | 5.0 | 0.00 | 1.50 | 0.00 | 76 | 1000.9 |
| 20260906174530 | 77 | 177 | 3.0 | 6.0 | 0.00 | 1.50 | 0.00 | 76 | 1000.8 |
| 20260906174041 | 77 | 198 | 3.0 | 6.0 | 0.00 | 1.50 | 0.00 | 76 | 1000.8 |
| 20260906173524 | 77 | 190 | 3.0 | 6.0 | 0.00 | 1.50 | 0.00 | 76 | 1000.9 |
| 20260906173032 | 77 | 183 | 3.0 | 7.0 | 0.00 | 1.50 | 0.00 | 76 | 1000.8 |
| 20260906172541 | 77 | 162 | 2.0 | 4.0 | 0.00 | 1.50 | 0.00 | 77 | 1000.8 |
| 20260906172025 | 77 | 169 | 2.0 | 6.0 | 0.00 | 1.50 | 0.00 | 77 | 1001.0 |
| 20260906171527 | 77 | 177 | 2.0 | 6.0 | 0.00 | 1.50 | 0.00 | 77 | 1001.0 |
| 20260906171101 | 77 | 222 | 2.0 | 5.0 | 0.00 | 1.50 | 0.00 | 77 | 1001.1 |
| 20260906170519 | 77 | 169 | 1.0 | 4.0 | 0.00 | 1.50 | 0.00 | 77 | 1001.0 |
| 20260906170026 | 77 | 194 | 1.0 | 4.0 | 0.00 | 1.50 | 0.00 | 77 | 1001.0 |
| 20260906165536 | 77 | 179 | 2.0 | 4.0 | 0.00 | 1.50 | 0.00 | 77 | 1001.0 |
| 20260906165019 | 77 | 183 | 1.0 | 3.0 | 0.00 | 1.50 | 0.00 | 77 | 1001.1 |
| 20260906164550 | 77 | 194 | 1.0 | 5.0 | 0.00 | 1.50 | 0.00 | 77 | 1001.2 |
| 20260906164040 | 77 | 207 | 2.0 | 5.0 | 0.00 | 1.50 | 0.00 | 77 | 1001.2 |
| 20260906163523 | 77 | 169 | 1.0 | 4.0 | 0.00 | 1.50 | 0.00 | 77 | 1001.2 |
| 20260906163052 | 77 | 191 | 2.0 | 5.0 | 0.00 | 1.50 | 0.00 | 76 | 1001.3 |
| 20260906162558 | 77 | 169 | 1.0 | 5.0 | 0.00 | 1.50 | 0.00 | 76 | 1001.4 |
| 20260906162042 | 77 | 212 | 2.0 | 6.0 | 0.00 | 1.50 | 0.00 | 76 | 1001.2 |
| 20260906161531 | 77 | 210 | 3.0 | 6.0 | 0.00 | 1.50 | 0.00 | 76 | 1001.3 |
| 20260906161100 | 77 | 181 | 2.0 | 6.0 | 0.00 | 1.50 | 0.00 | 76 | 1001.3 |
| 20260906160522 | 77 | 172 | 3.0 | 7.0 | 0.00 | 1.50 | 0.00 | 76 | 1001.3 |
| 20260906160050 | 77 | 186 | 3.0 | 7.0 | 0.00 | 1.50 | 0.00 | 76 | 1001.4 |
| 20260906155553 | 77 | 176 | 2.0 | 9.0 | 0.00 | 1.50 | 0.00 | 76 | 1001.4 |
| 20260906155026 | 77 | 196 | 5.0 | 8.0 | 0.00 | 1.50 | 0.00 | 76 | 1001.5 |
| 20260906154535 | 78 | 203 | 2.0 | 9.0 | 0.00 | 1.50 | 0.00 | 76 | 1001.7 |
| 20260906154020 | 78 | 207 | 3.0 | 9.0 | 0.00 | 1.50 | 0.00 | 76 | 1001.7 |
| 20260906153551 | 78 | 238 | 4.0 | 8.0 | 0.00 | 1.50 | 0.00 | 76 | 1001.7 |
| 20260906153100 | 78 | 179 | 3.0 | 8.0 | 0.00 | 1.50 | 0.00 | 76 | 1001.9 |
| 20260906152520 | 78 | 224 | 3.0 | 11.0 | 0.00 | 1.50 | 0.00 | 76 | 1001.9 |
| 20260906152019 | 78 | 199 | 5.0 | 11.0 | 0.00 | 1.50 | 0.00 | 76 | 1001.9 |
| 20260906151528 | 78 | 192 | 4.0 | 9.0 | 0.00 | 1.50 | 0.00 | 76 | 1002.1 |
| 20260906151036 | 78 | 221 | 5.0 | 10.0 | 0.00 | 1.50 | 0.00 | 76 | 1002.1 |
| 20260906150540 | 78 | 188 | 5.0 | 11.0 | 0.00 | 1.50 | 0.00 | 76 | 1002.3 |
| 20260906150027 | 78 | 180 | 3.0 | 7.0 | 0.00 | 1.50 | 0.30 | 76 | 1002.3 |
| 20260906145528 | 78 | 188 | 3.0 | 7.0 | 0.00 | 1.50 | 0.30 | 76 | 1002.3 |
| 20260906145038 | 78 | 176 | 3.0 | 10.0 | 0.00 | 1.50 | 0.30 | 76 | 1002.1 |
| 20260906144521 | 78 | 219 | 3.0 | 10.0 | 0.00 | 1.50 | 0.30 | 76 | 1002.1 |
| 20260906144030 | 78 | 226 | 3.0 | 10.0 | 0.00 | 1.50 | 0.30 | 76 | 1002.2 |
| 20260906143520 | 78 | 172 | 4.0 | 9.0 | 0.00 | 1.50 | 0.30 | 76 | 1002.2 |
| 20260906143022 | 78 | 204 | 4.0 | 8.0 | 0.00 | 1.50 | 0.30 | 77 | 1002.2 |
| 20260906142532 | 78 | 162 | 2.0 | 9.0 | 0.00 | 1.50 | 0.30 | 77 | 1002.2 |
| 20260906142043 | 78 | 181 | 3.0 | 9.0 | 0.00 | 1.50 | 0.30 | 77 | 1002.2 |
| 20260906141527 | 78 | 176 | 3.0 | 8.0 | 0.00 | 1.50 | 0.30 | 77 | 1002.1 |
| 20260906141037 | 78 | 184 | 3.0 | 9.0 | 0.00 | 1.50 | 0.30 | 77 | 1002.1 |
| 20260906140542 | 78 | 207 | 4.0 | 8.0 | 0.00 | 1.50 | 0.30 | 77 | 1002.3 |
| 20260906140019 | 78 | 169 | 3.0 | 8.0 | 0.00 | 1.50 | 0.30 | 77 | 1002.4 |
| 20260906135525 | 78 | 164 | 3.0 | 8.0 | 0.00 | 1.50 | 0.30 | 77 | 1002.2 |
| 20260906135034 | 78 | 170 | 3.0 | 7.0 | 0.00 | 1.50 | 0.30 | 77 | 1002.3 |
| 20260906134516 | 78 | 169 | 1.0 | 5.0 | 0.00 | 1.50 | 0.30 | 77 | 1002.2 |
| 20260906134025 | 78 | 203 | 2.0 | 4.0 | 0.00 | 1.50 | 0.30 | 77 | 1002.0 |
| 20260906133535 | 78 | 170 | 1.0 | 6.0 | 0.00 | 1.50 | 0.30 | 77 | 1002.1 |
| 20260906133016 | 78 | 202 | 3.0 | 6.0 | 0.00 | 1.50 | 0.30 | 77 | 1001.9 |
| 20260906132525 | 78 | 179 | 3.0 | 5.0 | 0.00 | 1.50 | 0.30 | 78 | 1002.0 |
| 20260906132054 | 78 | 193 | 2.0 | 5.0 | 0.00 | 1.50 | 0.30 | 78 | 1002.1 |
| 20260906131540 | 78 | 168 | 2.0 | 5.0 | 0.00 | 1.50 | 0.30 | 78 | 1002.1 |
| 20260906131023 | 78 | 186 | 1.0 | 5.0 | 0.00 | 1.50 | 0.30 | 78 | 1002.2 |
| 20260906130556 | 78 | 193 | 2.0 | 4.0 | 0.00 | 1.50 | 0.30 | 78 | 1002.2 |
| 20260906130016 | 78 | 166 | 2.0 | 5.0 | 0.00 | 1.50 | 0.30 | 78 | 1002.2 |
| 20260906125524 | 78 | 220 | 2.0 | 5.0 | 0.00 | 1.50 | 0.30 | 78 | 1002.2 |
| 20260906125035 | 78 | 200 | 2.0 | 5.0 | 0.00 | 1.50 | 0.30 | 78 | 1002.3 |
| 20260906124519 | 78 | 159 | 2.0 | 5.0 | 0.00 | 1.50 | 0.30 | 77 | 1002.2 |
| 20260906124025 | 78 | 189 | 3.0 | 5.0 | 0.00 | 1.50 | 0.30 | 77 | 1002.2 |
| 20260906123536 | 78 | 179 | 2.0 | 6.0 | 0.00 | 1.50 | 0.30 | 77 | 1002.4 |
| 20260906123043 | 78 | 198 | 2.0 | 6.0 | 0.00 | 1.50 | 0.30 | 77 | 1002.2 |
| 20260906122525 | 78 | 182 | 2.0 | 6.0 | 0.00 | 1.50 | 0.30 | 77 | 1002.4 |
| 20260906122037 | 78 | 191 | 2.0 | 6.0 | 0.00 | 1.50 | 0.30 | 77 | 1002.4 |
| 20260906121525 | 78 | 200 | 1.0 | 4.0 | 0.00 | 1.50 | 0.30 | 77 | 1002.4 |
| 20260906121016 | 78 | 179 | 2.0 | 4.0 | 0.00 | 1.50 | 0.30 | 77 | 1002.4 |
| 20260906120548 | 78 | 163 | 2.0 | 5.0 | 0.00 | 1.50 | 0.30 | 77 | 1002.4 |
| 20260906120030 | 78 | 169 | 1.0 | 5.0 | 0.00 | 1.50 | 0.30 | 77 | 1002.5 |
| 20260906115540 | 78 | 188 | 2.0 | 5.0 | 0.00 | 1.50 | 0.30 | 76 | 1002.5 |
| 20260906115044 | 78 | 170 | 2.0 | 5.0 | 0.00 | 1.50 | 0.30 | 76 | 1002.5 |
| 20260906114524 | 79 | 170 | 2.0 | 5.0 | 0.00 | 1.50 | 0.30 | 76 | 1002.5 |
| 20260906114034 | 79 | 222 | 2.0 | 6.0 | 0.00 | 1.50 | 0.30 | 76 | 1002.4 |
| 20260906113518 | 79 | 183 | 2.0 | 6.0 | 0.00 | 1.50 | 0.30 | 76 | 1002.3 |
| 20260906113026 | 79 | 161 | 2.0 | 6.0 | 0.00 | 1.50 | 0.30 | 76 | 1002.3 |
| 20260906112517 | 79 | 196 | 3.0 | 6.0 | 0.00 | 1.50 | 0.30 | 76 | 1002.3 |
| 20260906112044 | 79 | 173 | 3.0 | 9.0 | 0.00 | 1.50 | 0.30 | 76 | 1002.3 |
| 20260906111533 | 79 | 195 | 3.0 | 9.0 | 0.00 | 1.50 | 0.30 | 76 | 1002.2 |
| 20260906111015 | 79 | 192 | 4.0 | 6.0 | 0.00 | 1.50 | 0.30 | 76 | 1002.1 |
| 20260906110527 | 79 | 216 | 2.0 | 5.0 | 0.00 | 1.50 | 0.30 | 76 | 1002.2 |
| 20260906110036 | 79 | 165 | 2.0 | 3.0 | 0.00 | 1.50 | 0.30 | 76 | 1002.0 |
| 20260906105519 | 79 | 185 | 2.0 | 4.0 | 0.00 | 1.50 | 0.30 | 76 | 1001.9 |
| 20260906105027 | 79 | 179 | 2.0 | 4.0 | 0.00 | 1.50 | 0.30 | 76 | 1002.0 |
| 20260906104515 | 79 | 174 | 1.0 | 6.0 | 0.00 | 1.50 | 0.30 | 76 | 1001.9 |
| 20260906104024 | 79 | 200 | 3.0 | 6.0 | 0.00 | 1.50 | 0.30 | 76 | 1002.0 |
| 20260906103536 | 79 | 179 | 2.0 | 6.0 | 0.00 | 1.50 | 0.30 | 76 | 1001.9 |
| 20260906103017 | 79 | 191 | 2.0 | 4.0 | 0.00 | 1.50 | 0.30 | 77 | 1002.0 |
| 20260906102527 | 79 | 171 | 2.0 | 4.0 | 0.00 | 1.50 | 0.30 | 77 | 1001.9 |
| 20260906102035 | 79 | 185 | 2.0 | 3.0 | 0.00 | 1.50 | 0.30 | 77 | 1001.9 |
| 20260906101039 | 80 | 168 | 1.0 | 1.0 | 0.00 | 1.50 | 0.30 | 77 | 1002.0 |
| 20260906100524 | 80 | 168 | 0.0 | 1.0 | 0.00 | 1.50 | 0.30 | 77 | 1002.1 |
| 20260906100030 | 80 | 168 | 0.0 | 1.0 | 0.00 | 1.50 | 0.30 | 77 | 1002.1 |
| 20260906095601 | 80 | 168 | 0.0 | 1.0 | 0.00 | 1.50 | 0.30 | 77 | 1002.1 |
| 20260906095045 | 80 | 168 | 0.0 | 1.0 | 0.00 | 1.50 | 0.30 | 77 | 1002.2 |
| 20260906094537 | 80 | 168 | 0.0 | 0.0 | 0.00 | 1.50 | 0.30 | 77 | 1002.1 |
| 20260906094044 | 80 | 168 | 0.0 | 0.0 | 0.00 | 1.50 | 0.30 | 76 | 1002.1 |
| 20260906093819 | 80 | 168 | 0.0 | 0.0 | 0.00 | 1.50 | 0.30 | 76 | 1002.1 |
| 20260906093039 | 80 | 169 | 0.0 | 2.0 | 0.00 | 1.50 | 0.30 | 76 | 1002.2 |
| 20260906092547 | 80 | 169 | 0.0 | 2.0 | 0.00 | 1.50 | 0.30 | 76 | 1002.1 |
| 20260906092033 | 80 | 153 | 0.0 | 1.0 | 0.00 | 1.50 | 0.30 | 75 | 1002.1 |
| 20260906091515 | 80 | 153 | 0.0 | 1.0 | 0.00 | 1.50 | 0.30 | 76 | 1002.1 |
| 20260906091025 | 81 | 153 | 0.0 | 1.0 | 0.00 | 1.50 | 0.30 | 76 | 1002.0 |
| 20260906090534 | 81 | 153 | 0.0 | 1.0 | 0.00 | 1.50 | 0.30 | 75 | 1002.0 |
| 20260906090016 | 81 | 153 | 0.0 | 1.0 | 0.00 | 1.50 | 0.30 | 74 | 1002.1 |
| 20260906085527 | 81 | 153 | 0.0 | 1.0 | 0.00 | 1.50 | 0.30 | 74 | 1002.2 |
| 20260906085037 | 81 | 153 | 0.0 | 1.0 | 0.00 | 1.50 | 0.30 | 72 | 1002.2 |
| 20260906084520 | 81 | 153 | 0.0 | 1.0 | 0.00 | 1.50 | 0.30 | 73 | 1002.1 |
| 20260906084030 | 82 | 141 | 0.0 | 1.0 | 0.00 | 1.50 | 0.30 | 72 | 1002.1 |
| 20260906083532 | 82 | 141 | 0.0 | 1.0 | 0.00 | 1.50 | 0.30 | 72 | 1002.1 |
| 20260906083034 | 82 | 141 | 0.0 | 2.0 | 0.00 | 1.50 | 0.30 | 71 | 1002.1 |
| 20260906082519 | 82 | 141 | 0.0 | 2.0 | 0.00 | 1.50 | 0.30 | 71 | 1002.1 |
| 20260906082029 | 82 | 105 | 1.0 | 2.0 | 0.00 | 1.50 | 0.30 | 70 | 1002.2 |
| 20260906081540 | 82 | 104 | 0.0 | 2.0 | 0.00 | 1.50 | 0.30 | 69 | 1002.0 |
| 20260906081021 | 82 | 96 | 1.0 | 3.0 | 0.00 | 1.50 | 0.30 | 69 | 1001.9 |
| 20260906080533 | 82 | 90 | 2.0 | 3.0 | 0.00 | 1.50 | 0.30 | 69 | 1001.9 |
| 20260906080040 | 82 | 91 | 2.0 | 3.0 | 0.00 | 1.50 | 0.30 | 69 | 1001.9 |
| 20260906075521 | 82 | 99 | 2.0 | 4.0 | 0.00 | 1.50 | 0.30 | 69 | 1001.9 |
| 20260906075026 | 82 | 115 | 1.0 | 6.0 | 0.00 | 1.50 | 0.30 | 69 | 1001.9 |
| 20260906074557 | 82 | 83 | 3.0 | 6.0 | 0.00 | 1.50 | 0.30 | 69 | 1001.9 |
| 20260906074018 | 82 | 69 | 3.0 | 6.0 | 0.00 | 1.50 | 0.30 | 69 | 1001.9 |
| 20260906073529 | 83 | 99 | 2.0 | 5.0 | 0.00 | 1.50 | 0.30 | 69 | 1001.9 |
| 20260906073037 | 83 | 82 | 3.0 | 5.0 | 0.00 | 1.50 | 0.30 | 68 | 1001.9 |
| 20260906072520 | 83 | 75 | 3.0 | 6.0 | 0.00 | 1.50 | 0.30 | 68 | 1002.0 |
| 20260906072118 | 83 | 72 | 3.0 | 6.0 | 0.00 | 1.50 | 0.30 | 67 | 1001.9 |
| 20260906071540 | 83 | 83 | 2.0 | 5.0 | 0.00 | 1.50 | 0.30 | 68 | 1002.0 |
| 20260906071024 | 83 | 37 | 2.0 | 6.0 | 0.00 | 1.50 | 0.30 | 68 | 1002.0 |
| 20260906070535 | 82 | 60 | 2.0 | 6.0 | 0.00 | 1.50 | 0.30 | 68 | 1001.9 |
| 20260906070016 | 82 | 68 | 3.0 | 6.0 | 0.00 | 1.50 | 0.30 | 68 | 1002.0 |
| 20260906065525 | 82 | 39 | 3.0 | 6.0 | 0.00 | 1.50 | 0.30 | 68 | 1002.0 |
| 20260906064522 | 82 | 88 | 5.0 | 8.0 | 0.00 | 1.50 | 0.30 | 67 | 1002.0 |
| 20260906064032 | 83 | 65 | 3.0 | 8.0 | 0.00 | 1.50 | 0.30 | 68 | 1002.2 |
| 20260906063528 | 83 | 86 | 4.0 | 10.0 | 0.00 | 1.50 | 0.30 | 69 | 1002.1 |
| 20260906063038 | 83 | 80 | 6.0 | 9.0 | 0.00 | 1.50 | 0.30 | 68 | 1002.1 |
| 20260906062520 | 83 | 89 | 5.0 | 8.0 | 0.00 | 1.50 | 0.30 | 68 | 1002.1 |
| 20260906062030 | 83 | 70 | 4.0 | 8.0 | 0.00 | 1.50 | 0.30 | 67 | 1002.1 |
| 20260906061602 | 83 | 60 | 5.0 | 8.0 | 0.00 | 1.50 | 0.30 | 68 | 1002.1 |
| 20260906061021 | 83 | 103 | 4.0 | 8.0 | 0.00 | 1.50 | 0.30 | 68 | 1002.1 |
| 20260906060529 | 83 | 70 | 6.0 | 10.0 | 0.00 | 1.50 | 0.30 | 67 | 1002.0 |
| 20260906060038 | 84 | 63 | 7.0 | 10.0 | 0.00 | 1.50 | 0.30 | 65 | 1002.2 |
| 20260906055517 | 85 | 64 | 5.0 | 7.0 | 0.00 | 1.50 | 0.30 | 65 | 1002.2 |
| 20260906055100 | 85 | 81 | 2.0 | 5.0 | 0.00 | 1.50 | 0.30 | 65 | 1002.1 |
| 20260906054522 | 86 | 79 | 3.0 | 5.0 | 0.00 | 1.50 | 0.30 | 65 | 1002.1 |
| 20260906054030 | 86 | 86 | 2.0 | 10.0 | 0.00 | 1.50 | 0.30 | 64 | 1002.1 |
| 20260906053540 | 86 | 110 | 1.0 | 10.0 | 0.00 | 1.50 | 0.30 | 64 | 1002.1 |
| 20260906053020 | 86 | 109 | 3.0 | 8.0 | 0.00 | 1.50 | 0.30 | 64 | 1002.2 |
| 20260906052530 | 86 | 86 | 3.0 | 7.0 | 0.00 | 1.50 | 0.30 | 65 | 1002.1 |
| 20260906052035 | 86 | 113 | 3.0 | 7.0 | 0.00 | 1.50 | 0.30 | 65 | 1002.1 |
| 20260906051518 | 86 | 117 | 2.0 | 5.0 | 0.00 | 1.50 | 0.30 | 64 | 1002.1 |
| 20260906051028 | 87 | 77 | 2.0 | 5.0 | 0.00 | 1.50 | 0.30 | 63 | 1002.2 |
| 20260906050518 | 86 | 144 | 1.0 | 5.0 | 0.00 | 1.50 | 0.30 | 64 | 1002.4 |
| 20260906050026 | 86 | 117 | 2.0 | 5.0 | 0.00 | 1.50 | 0.30 | 64 | 1002.5 |
| 20260906045536 | 86 | 122 | 2.0 | 5.0 | 0.00 | 1.50 | 0.30 | 64 | 1002.6 |
| 20260906045020 | 86 | 120 | 2.0 | 4.0 | 0.00 | 1.50 | 0.30 | 62 | 1002.6 |
| 20260906044539 | 86 | 130 | 2.0 | 4.0 | 0.00 | 1.50 | 0.30 | 64 | 1002.7 |
| 20260906044024 | 86 | 132 | 2.0 | 5.0 | 0.00 | 1.50 | 0.30 | 63 | 1002.8 |
| 20260906043555 | 86 | 112 | 2.0 | 5.0 | 0.00 | 1.50 | 0.30 | 63 | 1003.0 |
| 20260906043103 | 86 | 136 | 1.0 | 5.0 | 0.00 | 1.50 | 0.30 | 63 | 1003.0 |
| 20260906042522 | 86 | 142 | 0.0 | 4.0 | 0.00 | 1.50 | 0.30 | 63 | 1003.1 |
| 20260906042031 | 86 | 158 | 1.0 | 4.0 | 0.00 | 1.50 | 0.30 | 65 | 1003.2 |
| 20260906041541 | 85 | 115 | 3.0 | 4.0 | 0.00 | 1.50 | 0.30 | 65 | 1003.3 |
| 20260906041022 | 85 | 141 | 1.0 | 5.0 | 0.00 | 1.50 | 0.30 | 65 | 1003.4 |
| 20260906040552 | 85 | 140 | 3.0 | 5.0 | 0.00 | 1.50 | 0.30 | 65 | 1003.5 |
| 20260906040036 | 85 | 133 | 2.0 | 5.0 | 0.00 | 1.50 | 0.30 | 66 | 1003.5 |
| 20260906035518 | 84 | 145 | 2.0 | 5.0 | 0.00 | 1.50 | 0.30 | 67 | 1003.6 |
| 20260906035030 | 84 | 136 | 2.0 | 4.0 | 0.00 | 1.50 | 0.30 | 68 | 1003.6 |
| 20260906034022 | 83 | 122 | 3.0 | 5.0 | 0.00 | 1.50 | 0.30 | 67 | 1003.8 |
| 20260906033533 | 83 | 127 | 2.0 | 5.0 | 0.00 | 1.50 | 0.30 | 68 | 1003.9 |
| 20260906033044 | 83 | 129 | 3.0 | 5.0 | 0.00 | 1.50 | 0.30 | 66 | 1004.0 |
| 20260906032520 | 83 | 133 | 3.0 | 5.0 | 0.00 | 1.50 | 0.30 | 68 | 1003.9 |
| 20260906032032 | 83 | 156 | 2.0 | 5.0 | 0.00 | 1.50 | 0.30 | 69 | 1004.0 |
| 20260906031541 | 82 | 169 | 2.0 | 5.0 | 0.00 | 1.50 | 0.30 | 69 | 1003.9 |
| 20260906031023 | 82 | 134 | 3.0 | 5.0 | 0.00 | 1.50 | 0.30 | 70 | 1004.0 |
| 20260906030533 | 82 | 146 | 1.0 | 4.0 | 0.00 | 1.50 | 0.30 | 71 | 1004.1 |
| 20260906030041 | 82 | 157 | 1.0 | 4.0 | 0.00 | 1.50 | 0.30 | 70 | 1004.3 |
| 20260906025525 | 82 | 140 | 2.0 | 4.0 | 0.00 | 1.50 | 0.30 | 71 | 1004.3 |
| 20260906025034 | 82 | 139 | 2.0 | 4.0 | 0.00 | 1.50 | 0.30 | 71 | 1004.4 |
| 20260906024541 | 81 | 167 | 2.0 | 6.0 | 0.00 | 1.50 | 0.30 | 73 | 1004.6 |
| 20260906024042 | 80 | 158 | 2.0 | 6.0 | 0.00 | 1.50 | 0.30 | 74 | 1004.5 |
| 20260906023532 | 80 | 157 | 1.0 | 4.0 | 0.00 | 1.50 | 0.30 | 76 | 1004.7 |
| 20260906023040 | 79 | 141 | 1.0 | 4.0 | 0.00 | 1.50 | 0.30 | 78 | 1004.7 |
| 20260906022544 | 78 | 148 | 1.0 | 4.0 | 0.00 | 1.50 | 0.30 | 78 | 1004.6 |
| 20260906022032 | 77 | 131 | 1.0 | 6.0 | 0.00 | 1.50 | 0.30 | 80 | 1004.8 |
| 20260906021540 | 76 | 160 | 2.0 | 6.0 | 0.00 | 1.50 | 0.30 | 79 | 1004.8 |
| 20260906021023 | 76 | 149 | 1.0 | 4.0 | 0.00 | 1.50 | 0.30 | 81 | 1004.8 |
| 20260906020530 | 76 | 136 | 2.0 | 3.0 | 0.00 | 1.50 | 0.30 | 81 | 1004.7 |
| 20260906020038 | 76 | 146 | 0.0 | 3.0 | 0.00 | 1.50 | 0.30 | 82 | 1004.8 |
| 20260906015521 | 75 | 118 | 0.0 | 5.0 | 0.00 | 1.50 | 0.30 | 82 | 1004.8 |
| 20260906015030 | 75 | 127 | 1.0 | 4.0 | 0.00 | 1.50 | 0.30 | 82 | 1004.8 |
| 20260906014601 | 75 | 146 | 2.0 | 4.0 | 0.00 | 1.50 | 0.30 | 83 | 1004.9 |
| 20260906014039 | 75 | 142 | 1.0 | 5.0 | 0.00 | 1.50 | 0.30 | 83 | 1004.9 |
| 20260906013521 | 75 | 141 | 2.0 | 5.0 | 0.00 | 1.50 | 0.30 | 83 | 1004.9 |
| 20260906013016 | 75 | 166 | 2.0 | 4.0 | 0.00 | 1.50 | 0.30 | 84 | 1004.9 |
| 20260906012527 | 75 | 150 | 1.0 | 4.0 | 0.00 | 1.50 | 0.30 | 85 | 1005.1 |
| 20260906012038 | 74 | 143 | 1.0 | 4.0 | 0.04 | 1.50 | 0.30 | 86 | 1005.3 |
| 20260906011520 | 74 | 160 | 2.0 | 4.0 | 0.04 | 1.50 | 0.30 | 86 | 1005.3 |
| 20260906011030 | 73 | 151 | 2.0 | 6.0 | 0.08 | 1.50 | 0.30 | 87 | 1005.4 |
| 20260906010541 | 73 | 150 | 4.0 | 6.0 | 0.12 | 1.50 | 0.30 | 87 | 1005.4 |
| 20260906010022 | 73 | 173 | 3.0 | 8.0 | 0.20 | 1.50 | 0.30 | 87 | 1005.5 |
| 20260906005024 | 73 | 160 | 3.0 | 4.0 | 0.20 | 1.50 | 0.30 | 88 | 1005.7 |
| 20260906004530 | 73 | 172 | 1.0 | 4.0 | 0.20 | 1.50 | 0.30 | 88 | 1005.8 |
| 20260906004101 | 72 | 176 | 2.0 | 4.0 | 0.20 | 1.50 | 0.30 | 88 | 1005.9 |
| 20260906003524 | 72 | 168 | 0.0 | 3.0 | 0.20 | 1.50 | 0.30 | 89 | 1006.0 |
| 20260906003032 | 72 | 176 | 1.0 | 3.0 | 0.24 | 1.50 | 0.30 | 88 | 1006.0 |
| 20260906002541 | 72 | 179 | 2.0 | 3.0 | 0.24 | 1.50 | 0.30 | 88 | 1006.2 |
| 20260906002042 | 72 | 167 | 1.0 | 2.0 | 0.28 | 1.46 | 0.29 | 88 | 1006.1 |
| 20260906001532 | 72 | 140 | 0.0 | 2.0 | 0.39 | 1.46 | 0.29 | 88 | 1006.2 |
| 20260906001039 | 72 | 129 | 1.0 | 2.0 | 0.39 | 1.42 | 0.28 | 88 | 1006.2 |
| 20260906000518 | 72 | 153 | 0.0 | 1.0 | 0.35 | 1.34 | 0.27 | 88 | 1006.3 |
| 20260906000026 | 71 | 158 | 0.0 | 2.0 | 0.39 | 1.30 | 0.26 | 88 | 1006.3 |
| 20260905235558 | 71 | 157 | 1.0 | 3.0 | 0.43 | 1.30 | 0.26 | 88 | 1006.4 |
| 20260905235020 | 71 | 160 | 1.0 | 4.0 | 0.47 | 1.30 | 0.26 | 88 | 1006.4 |
| 20260905234522 | 71 | 165 | 2.0 | 4.0 | 0.51 | 1.30 | 0.26 | 88 | 1006.4 |
| 20260905234030 | 71 | 148 | 0.0 | 2.0 | 0.59 | 1.30 | 0.26 | 88 | 1006.4 |